Lewiston, ID

8:10 AM PST on February 20, 2017 (GMT -0800)
Lewiston-Nez Perce County

Weather History for KLWS - February, 2014

Change the Weather History Date:

Friday, February 21, 2014

  Actual Average Record
Temperature  
Mean Temperature 43 °F 40 °F  
Max Temperature 50 °F 48 °F 65 °F (1988)
Min Temperature 35 °F 31 °F 5 °F (1894)
Degree Days  
Heating Degree Days 22 25  
Month to date heating degree days 651 564  
Since 1 July heating degree days 3960 3683  
Cooling Degree Days 0 0  
Month to date cooling degree days 0 0  
Year to date cooling degree days 0 0  
Moisture  
Dew Point 23 °F    
Average Humidity 51    
Maximum Humidity 70    
Minimum Humidity 31    
Precipitation  
Precipitation 0.00 in 0.02 in 0.40 in (1996)
Month to date precipitation 0.74 0.57  
Year to date precipitation 1.79 1.65  
Snow  
Snow 0.00 in 0.10 in 2.30 in (1955)
Month to date snowfall 11.5 1.7  
Since 1 July snowfall 14.0 9.4  
Snow Depth 0.00 in    
Sea Level Pressure  
Sea Level Pressure 30.10 in    
Wind  
Wind Speed 9 mph (WSW)    
Max Wind Speed 24 mph    
Max Gust Speed 34 mph    
Visibility 10 miles    
Events      
T = Trace of Precipitation, MM = Missing Value Source: NWS Daily Summary

Daily Weather History Graph

Daily Weather History Graph

Search for Another Location

Airport or City:

Trip Planner

Search our weather history database for the weather conditions in past years. The results will help you decide how hot, cold, wet, or windy it might be!

Date:

Astronomy

Feb. 21, 2014 Rise Set
Actual Time 6:41 AM PST 5:22 PM PST
Civil Twilight 6:10 AM PST 5:53 PM PST
Nautical Twilight 5:35 AM PST 6:28 PM PST
Astronomical Twilight 5:01 AM PST 7:03 PM PST
Moon No Moon Rise 9:45 AM PST (2/21)
Length of Visible Light 11h 42m
Length of Day
10h 41m
Waning Gibbous, 59% of the Moon is Illuminated
Feb 21
Waning Gibbous
Feb 22
Last Quarter
Mar 1
New
Mar 8
First Quarter
Mar 16
Full

Hourly Weather History & Observations

Time (PST) Temp. Windchill Dew Point Humidity Pressure Visibility Wind Dir Wind Speed Gust Speed Precip Events Conditions
12:56 AM 36.0 °F 32.1 °F 26.1 °F 67% 30.07 in 10.0 mi SE 4.6 mph - N/A   Partly Cloudy
1:56 AM 37.9 °F 35.5 °F 26.1 °F 62% 30.07 in 10.0 mi South 3.5 mph - N/A   Partly Cloudy
2:56 AM 39.9 °F 33.4 °F 25.0 °F 55% 30.07 in 10.0 mi West 10.4 mph - N/A   Clear
3:56 AM 41.0 °F 33.9 °F 25.0 °F 53% 30.08 in 10.0 mi WNW 12.7 mph - N/A   Clear
4:56 AM 39.9 °F 34.5 °F 26.1 °F 58% 30.09 in 10.0 mi WNW 8.1 mph - N/A   Clear
5:56 AM 39.0 °F 32.3 °F 25.0 °F 57% 30.09 in 10.0 mi West 10.4 mph - N/A   Partly Cloudy
6:56 AM 37.9 °F 32.7 °F 25.0 °F 60% 30.10 in 10.0 mi WSW 6.9 mph - N/A   Partly Cloudy
7:56 AM 39.9 °F 36.7 °F 24.1 °F 53% 30.11 in 10.0 mi SE 4.6 mph - N/A   Mostly Cloudy
8:56 AM 44.1 °F 39.5 °F 25.0 °F 47% 30.10 in 10.0 mi West 8.1 mph - N/A   Scattered Clouds
9:56 AM 46.9 °F - 21.0 °F 36% 30.10 in 10.0 mi West 20.7 mph 31.1 mph N/A   Scattered Clouds
10:56 AM 46.0 °F 37.8 °F 21.0 °F 37% 30.10 in 10.0 mi West 23.0 mph 31.1 mph N/A   Scattered Clouds
11:56 AM 48.9 °F - 21.9 °F 35% 30.09 in 10.0 mi West 16.1 mph 24.2 mph N/A   Scattered Clouds
12:56 PM 48.0 °F - 19.9 °F 33% 30.09 in 10.0 mi West 15.0 mph 24.2 mph N/A   Overcast
1:56 PM 45.0 °F 37.6 °F 25.0 °F 46% 30.09 in 10.0 mi West 17.3 mph 26.5 mph N/A   Overcast
2:56 PM 45.0 °F 39.7 °F 24.1 °F 44% 30.10 in 10.0 mi WNW 10.4 mph 18.4 mph N/A   Mostly Cloudy
3:56 PM 44.1 °F 40.1 °F 21.0 °F 40% 30.10 in 10.0 mi NW 6.9 mph - N/A   Overcast
4:56 PM 42.1 °F 36.1 °F 19.0 °F 40% 30.11 in 10.0 mi NNE 10.4 mph - N/A   Overcast
5:56 PM 41.0 °F 38.0 °F 19.0 °F 41% 30.13 in 10.0 mi NE 4.6 mph - N/A   Overcast
6:56 PM 39.9 °F 35.1 °F 18.0 °F 41% 30.14 in 10.0 mi NNE 6.9 mph - N/A   Overcast
7:56 PM 39.9 °F - 18.0 °F 41% 30.14 in 10.0 mi Calm Calm - N/A   Overcast
8:56 PM 39.0 °F 36.8 °F 19.9 °F 46% 30.14 in 10.0 mi SSW 3.5 mph - N/A   Overcast
9:56 PM 37.9 °F 32.1 °F 21.9 °F 53% 30.13 in 10.0 mi South 8.1 mph - N/A   Overcast
10:56 PM 37.0 °F 31.6 °F 24.1 °F 59% 30.14 in 10.0 mi South 6.9 mph - N/A   Overcast
11:56 PM 36.0 °F 31.1 °F 24.1 °F 62% 30.14 in 10.0 mi South 5.8 mph - N/A   Overcast